DW3649 Weather Reports


Display with metric or nautical units.
time (UTC)temp
F
wind
direction
speed
MPH
gust
MPH
rain 1hr
in
rain 24hr
in
rain mn
in
humidity
%
barometer
mb
20260505000139 55 71 0.0 0.0 0.00 0.00 0.00 60 1015.9
20260504234614 55 71 0.0 0.0 0.00 0.00 0.00 60 1016.0
20260504233107 55 71 0.0 0.0 0.00 0.00 0.00 61 1016.0
20260504231558 55 71 0.0 0.0 0.00 0.00 0.00 60 1016.1
20260504230056 56 71 0.0 0.0 0.00 0.00 0.00 61 1016.3
20260504224608 56 71 0.0 0.0 0.00 0.00 0.00 61 1016.4
20260504223052 55 71 0.0 0.0 0.00 0.00 0.00 59 1016.5
20260504221550 55 71 0.0 0.0 0.00 0.00 0.00 56 1016.7
20260504220050 55 71 0.0 0.0 0.00 0.00 0.00 55 1016.7
20260504214548 55 71 0.0 0.0 0.00 0.00 0.00 54 1016.7
20260504213107 55 71 0.0 0.0 0.00 0.00 0.00 54 1016.7
20260504211545 56 71 0.0 0.0 0.00 0.00 0.00 52 1016.7
20260504210043 56 71 0.0 0.0 0.00 0.00 0.00 50 1016.7
20260504204542 56 71 0.0 0.0 0.00 0.00 0.00 48 1016.7
20260504203047 56 71 1.0 0.0 0.00 0.00 0.00 47 1016.8
20260504201542 56 71 1.0 0.0 0.00 0.00 0.00 48 1016.8
20260504200044 56 113 0.0 0.0 0.00 0.00 0.00 51 1016.9
20260504194555 56 113 0.0 0.0 0.00 0.00 0.00 57 1016.9
20260504193051 57 113 0.0 0.0 0.00 0.00 0.00 59 1016.7
20260504191540 58 113 0.0 0.0 0.00 0.00 0.00 60 1016.6
20260504190041 58 113 0.0 0.0 0.00 0.00 0.00 61 1016.7
20260504184539 58 113 1.0 0.0 0.00 0.00 0.00 60 1016.6
20260504183038 58 113 0.0 0.0 0.00 0.00 0.00 60 1016.5
20260504181538 59 113 1.0 0.0 0.00 0.00 0.00 60 1016.4
20260504180038 59 113 1.0 0.0 0.00 0.00 0.00 60 1016.3
20260504174537 59 113 0.0 0.0 0.00 0.00 0.00 60 1016.3
20260504173045 59 113 2.0 0.0 0.00 0.00 0.00 59 1016.2
20260504171537 60 151 1.0 0.0 0.00 0.00 0.00 58 1016.1
20260504090117 61 324 4.0 0.0 0.00 0.00 0.00 38 1018.2
20260504081547 59 213 2.0 0.0 0.00 0.00 0.00 41 1018.1
20260504050021 53 60 1.0 0.0 0.00 0.00 0.00 60 1017.4
20260504044534 52 71 1.0 0.0 0.00 0.00 0.00 62 1017.3
20260504043020 51 69 0.0 0.0 0.00 0.00 0.00 64 1017.2
20260504041515 50 69 0.0 0.0 0.00 0.00 0.00 66 1017.2
20260504040014 49 69 0.0 0.0 0.00 0.00 0.00 66 1017.1
20260504034515 48 69 0.0 0.0 0.00 0.00 0.00 66 1017.0
20260504033012 49 69 0.0 0.0 0.00 0.00 0.00 64 1017.0
20260504031510 49 69 0.0 0.0 0.00 0.00 0.00 64 1016.9
20260504030009 49 69 0.0 0.0 0.00 0.00 0.00 63 1016.9
20260504024516 49 69 0.0 0.0 0.00 0.00 0.00 62 1016.9
20260504023007 50 69 0.0 0.0 0.00 0.00 0.00 62 1016.8
20260504021506 50 69 1.0 0.0 0.00 0.00 0.00 62 1016.8
20260504020012 50 63 1.0 0.0 0.00 0.00 0.00 61 1016.9
20260504014505 50 61 0.0 0.0 0.00 0.00 0.00 61 1017.0
20260504013003 50 61 0.0 0.0 0.00 0.00 0.00 60 1016.8
20260504011502 50 61 0.0 0.0 0.00 0.00 0.00 60 1016.9
20260504010002 50 61 0.0 0.0 0.00 0.00 0.00 59 1016.9
20260504004505 50 61 0.0 0.0 0.00 0.00 0.00 59 1016.9
20260504003100 50 61 1.0 0.0 0.00 0.00 0.00 59 1016.9
20260504001614 51 63 1.0 0.0 0.00 0.00 0.00 58 1016.8